{"data":{"norad_id":65103,"epoch":"2026-05-24T23:16:06.083040Z","epoch_age_seconds":71471,"freshness":"FRESH","line1":"1 65103U 25167AB  26144.96951485  .00012909  00000+0  39252-3 0  9994","line2":"2 65103  53.1589  31.9846 0000864  72.6057 287.5040 15.34402001 45166","mean_motion":15.34402001,"eccentricity":8.64e-5,"inclination_deg":53.1589,"raan_deg":31.9846,"arg_perigee_deg":72.6057,"mean_anomaly_deg":287.504,"bstar":0.00039252,"rev_number":4516,"period_min":93.847635695308,"perigee_km":462.10624473698,"apogee_km":463.28834090278,"semimajor_km":6840.8342928199,"source":"CELESTRAK","updated_at":"2026-05-25T13:38:20.687774Z"}}